{"data":{"norad_id":61759,"intl_designator":"2024-199AA","name":"SITRO-AIS 19","alt_names":[],"object_type":"PAYLOAD","status":"ACTIVE","operator":null,"country":"CIS","launch_date":"2024-11-04","launch_site_code":"VOSTO","launch_vehicle":null,"mission":null,"orbit_class":"UNKNOWN","rcs_meters":null,"size_class":null,"mass_kg":null,"dimensions":null,"purposes":[],"wikipedia_slug":null,"has_3d_model":false,"image_url":null,"decayed_at":null,"tle_current":{"epoch":"2026-05-25T04:36:28.329984Z","epoch_age_seconds":72651,"freshness":"FRESH","line1":"1 61759U 24199AA  26145.19199456  .00001949  00000+0  17051-3 0  9994","line2":"2 61759  97.3259 346.1873 0007013 134.2195 225.9606 14.97787846131694","mean_motion":14.97787846,"eccentricity":0.0007013,"inclination_deg":97.3259,"raan_deg":346.1873,"arg_perigee_deg":134.2195,"mean_anomaly_deg":225.9606,"bstar":0.00017051,"rev_number":13169,"period_min":96.141786959059,"perigee_km":568.85761676353,"apogee_km":578.60830957387,"semimajor_km":6951.8699631687,"source":"CELESTRAK","updated_at":"2026-05-25T13:38:02.556335Z"}}}